Location: Hartman Creek State Park
(44.3257°N, 89.2134°W)
Time: 22:34:21
(UTC-05:00)

Terra - Visible Passes

Search period start: 01 July 2015 00:00
Search period end: 11 July 2015 00:00
Orbit: 701 x 704 km, 98.2° (Epoch: 01 July)

Date Brightness Start Highest point End Pass type
(mag) Time Alt. Az. Time Alt. Az. Time Alt. Az.
01 Jul 2.9 22:02:11 14° ESE 22:05:29 31° ENE 22:09:41 10° N visible
01 Jul 3.2 23:41:04 22° SW 23:43:14 31° W 23:47:26 10° NNW visible
02 Jul 1.8 22:45:28 27° SSE 22:48:05 78° ENE 22:52:52 10° N visible
03 Jul 4.2 00:24:33 10° WSW 00:26:32 12° W 00:28:16 10° WNW visible
03 Jul 3.2 21:49:52 11° ESE 21:53:23 24° ENE 21:57:14 10° NNE visible
03 Jul 2.7 23:28:45 25° SSW 23:30:58 40° W 23:35:27 10° NNW visible
04 Jul 2.0 22:33:09 24° SE 22:35:55 59° ENE 22:40:37 10° N visible
05 Jul 4.0 00:12:03 13° WSW 00:14:09 16° W 00:16:59 10° NW visible
05 Jul 3.5 21:38:01 10° ESE 21:41:17 19° ENE 21:44:42 10° NNE visible
05 Jul 2.3 23:16:27 28° SSW 23:18:42 53° W 23:23:23 10° NNW visible
06 Jul 2.4 22:20:51 20° SE 22:23:46 45° ENE 22:28:19 10° N visible
06 Jul 3.7 23:59:45 16° SW 00:01:47 21° W 00:05:19 10° NW visible
07 Jul 3.8 21:26:36 10° E 21:29:12 15° ENE 21:32:00 10° NNE visible
07 Jul 1.9 23:04:09 30° S 23:06:28 71° WSW 23:11:15 10° NNW visible
08 Jul 2.7 22:08:34 17° SE 22:11:38 35° ENE 22:15:58 10° N visible
08 Jul 3.4 23:47:27 20° SW 23:49:28 27° W 23:53:28 10° NW visible
09 Jul 4.0 21:15:31 10° E 21:17:09 12° ENE 21:19:01 10° NE visible
09 Jul 1.8 22:51:51 30° SSE 22:54:15 88° ENE 22:59:03 10° NNW visible
10 Jul 4.3 00:31:56 10° W 00:32:49 10° W 00:33:22 10° WNW visible
10 Jul 3.1 21:56:16 14° ESE 21:59:30 27° ENE 22:03:32 10° N visible
10 Jul 2.9 23:35:09 25° SW 23:37:10 35° W 23:41:31 10° NNW visible
